Hourly Data Report for October 05, 2015

All times are specified in Local Standard Time (LST). Add 1 hour to adjust for Daylight Saving Time where and when it is observed.

PANGNIRTUNG
NUNAVUT

66°08'36.300" N
65°42'40.500" W
22.60 m
2403049
71826
WXP

Download Data

Hourly Data (October 2015)
Hourly Data Report for October 5, 2015
Temp Definition
°C
Dew Point Temp Definition
°C
Rel Hum Definition
%
Wind Dir Definition
10's deg

Wind Spd Definition
km/h
Visibility Definition
km
Stn Press Definition
kPa
Hmdx Definition


Wind Chill Definition


Weather Definition


TIME
00:00 -3.1 -4.4 91 25 7   100.99   -6 LegendNANA
01:00 -3.1 -4.4 91 24 16   100.97   -8 LegendNANA
02:00 -3.3 -4.8 89 24 11   100.98   -8 LegendNANA
03:00 -4.7 -6.7 86 24 14   100.98   -10 LegendNANA
04:00 -4.1 -6.8 82 23 9   100.96   -8 LegendNANA
05:00 -4.8 -7.1 84 25 9   100.94   -9 LegendNANA
06:00 -4.7 -7.1 84 23 5   100.96   -7 LegendNANA
07:00 -4.9 -7.4 82 27 7   100.96   -8 LegendNANA
08:00 -5.3 -7.7 83 25 13   100.98   -10 LegendNANA
09:00 -4.9 -7.4 83 18 1   100.99   -5 LegendNANA
10:00 -4.6 -7.6 79 20 1   101.01   -5 LegendNANA
11:00 -5.2 -8.1 80 24 11   101.01   -10 LegendNANA
12:00 -5.6 -8.4 81 24 11   101.02   -10 LegendNANA
13:00 -5.2 -9.3 73 32 9   101.02   -9 LegendNANA
14:00 -5.7 -10.1 71 14 8   101.05   -9 LegendNANA
15:00 -6.5 -10.6 73 15 8   101.09   -10 LegendNANA
16:00 -7.0 -11.1 73 17 8   101.13   -11 LegendNANA
17:00 -6.5 -10.9 71 20 6   101.19   -9 LegendNANA
18:00 -7.1 -11.3 72 25 5   101.20   -10 LegendNANA
19:00 -6.8 -11.6 69 24 2   101.22   -8 LegendNANA
20:00 -7.0 -11.7 69 13 4   101.27   -9 LegendNANA
21:00 -6.7 -10.1 77 14 8   101.27   -11 LegendNANA
22:00 -7.7 -11.7 73 12 11   101.29   -13 LegendNANA
23:00 -7.6 -11.9 72 12 12   101.28   -13 LegendNANA

Notes on Data Quality.

Legend

  • E = Estimated
  • M = Missing
  • NA = Not Available
  • ‡ = Partner data that is not subject to review by the National Climate Archives
Date modified: